W1HAF-2 Weather Reports


Display with metric or nautical units.
time (UTC)temp
F
wind
direction
speed
MPH
gust
MPH
rain 1hr
in
rain 24hr
in
rain mn
in
humidity
%
barometer
mb
20200331173542 45 219 7.0 10.0 0.00 0.00 0.00 65 1015.8
20200331172507 46 244 3.0 6.0 0.00 0.00 0.00 62 1015.6
20200331171515 47 66 1.0 8.0 0.00 0.00 0.00 56 1015.6
20200331170507 48 132 2.0 5.0 0.00 0.00 0.00 55 1015.5
20200331165515 46 40 4.0 10.0 0.00 0.00 0.00 58 1015.6
20200331164521 46 37 0.0 9.0 0.00 0.00 0.00 61 1015.5
20200331163509 47 313 1.0 5.0 0.00 0.00 0.00 61 1015.8
20200331162521 45 56 3.0 6.0 0.00 0.00 0.00 62 1015.8
20200331161530 44 36 6.0 9.0 0.00 0.00 0.00 62 1015.9
20200331160517 44 7 0.0 9.0 0.00 0.00 0.00 65 1016.2
20200331155505 43 60 2.0 8.0 0.00 0.00 0.00 67 1016.3
20200331154534 44 44 2.0 10.0 0.00 0.00 0.00 64 1016.3
20200331153504 43 349 1.0 10.0 0.00 0.00 0.00 69 1016.5
20200331152512 42 27 4.0 10.0 0.00 0.00 0.00 68 1016.8
20200331151521 41 28 3.0 9.0 0.00 0.00 0.00 74 1016.8
20200331150528 40 41 2.0 9.0 0.00 0.00 0.00 74 1017.0
20200331145520 41 34 3.0 8.0 0.00 0.00 0.00 75 1016.9
20200331144528 40 83 2.0 10.0 0.00 0.00 0.00 77 1017.0
20200331143515 39 30 4.0 9.0 0.00 0.00 0.00 81 1016.7
20200331142503 39 302 4.0 11.0 0.00 0.00 0.00 83 1016.9
20200331141510 39 358 3.0 11.0 0.00 0.00 0.00 83 1017.0
20200331140538 39 343 7.0 13.0 0.00 0.00 0.00 82 1017.1
20200331135506 39 50 7.0 18.0 0.00 0.00 0.00 81 1017.1
20200331134515 40 57 4.0 9.0 0.00 0.00 0.00 82 1017.1
20200331133507 39 354 4.0 12.0 0.00 0.00 0.00 83 1017.1
20200331132517 39 32 6.0 10.0 0.00 0.00 0.00 83 1017.3
20200331131506 39 27 4.0 10.0 0.00 0.00 0.00 84 1017.4
20200331130510 39 23 3.0 9.0 0.00 0.00 0.00 85 1017.4
20200331125503 39 7 5.0 10.0 0.00 0.00 0.00 86 1017.4
20200331124532 38 30 2.0 8.0 0.00 0.00 0.00 87 1017.5
20200331123519 38 349 6.0 11.0 0.00 0.00 0.00 88 1017.5
20200331122528 38 352 3.0 8.0 0.00 0.00 0.00 89 1017.6
20200331121519 38 41 6.0 11.0 0.00 0.00 0.00 89 1017.6
20200331120507 38 44 2.0 14.0 0.00 0.00 0.00 90 1017.6
20200331115513 38 341 4.0 9.0 0.00 0.00 0.00 90 1017.5
20200331114522 38 41 2.0 6.0 0.00 0.00 0.00 90 1017.3
20200331113513 38 32 2.0 9.0 0.00 0.00 0.00 89 1017.4
20200331112521 38 16 0.0 6.0 0.00 0.00 0.00 90 1017.2
20200331111529 38 31 4.0 8.0 0.00 0.00 0.00 90 1017.2
20200331110517 38 345 1.0 9.0 0.00 0.00 0.00 90 1017.0
20200331105530 38 351 4.0 7.0 0.00 0.00 0.00 90 1016.9
20200331104536 38 335 2.0 7.0 0.00 0.00 0.00 90 1016.6
20200331103503 38 343 2.0 7.0 0.00 0.00 0.00 90 1016.2
20200331102511 37 11 2.0 8.0 0.00 0.00 0.00 90 1016.0
20200331101503 37 84 1.0 8.0 0.00 0.00 0.00 90 1015.8
20200331100511 38 4 2.0 7.0 0.00 0.00 0.00 90 1015.6
20200331095520 38 326 2.0 7.0 0.00 0.00 0.00 91 1015.6
20200331094508 38 24 2.0 10.0 0.00 0.00 0.00 91 1015.5
20200331093541 38 52 5.0 8.0 0.00 0.00 0.00 91 1015.4
20200331092510 38 29 4.0 9.0 0.00 0.00 0.00 92 1015.3
20200331091537 37 14 3.0 8.0 0.00 0.00 0.00 92 1015.3
20200331090503 38 37 3.0 9.0 0.00 0.00 0.00 92 1015.2
20200331085532 38 59 4.0 7.0 0.00 0.00 0.00 92 1015.3
20200331084519 38 349 4.0 8.0 0.00 0.00 0.00 92 1015.4
20200331083505 38 58 2.0 7.0 0.00 0.00 0.00 92 1015.3
20200331082514 38 9 2.0 7.0 0.00 0.00 0.00 92 1015.2
20200331081507 38 349 2.0 6.0 0.00 0.00 0.00 92 1015.1
20200331080528 38 335 2.0 7.0 0.00 0.00 0.00 91 1015.2
20200331075516 38 357 3.0 10.0 0.00 0.00 0.00 91 1015.3
20200331074504 38 315 1.0 9.0 0.00 0.00 0.00 91 1015.4
20200331073532 38 290 3.0 9.0 0.00 0.00 0.00 90 1015.4
20200331072504 38 328 2.0 9.0 0.00 0.00 0.00 90 1015.6
20200331071513 39 332 1.0 5.0 0.00 0.00 0.00 90 1015.6
20200331070542 39 333 2.0 12.0 0.00 0.00 0.00 88 1015.4
20200331065507 39 51 1.0 9.0 0.00 0.00 0.00 87 1015.3
20200331064520 39 25 4.0 9.0 0.00 0.00 0.00 87 1015.4
20200331063508 40 341 4.0 8.0 0.00 0.00 0.00 86 1015.5
20200331061524 40 350 2.0 7.0 0.00 0.00 0.00 85 1015.5
20200331060535 40 332 3.0 8.0 0.00 0.00 0.00 85 1015.4
20200331055507 40 343 2.0 9.0 0.00 0.00 0.00 85 1015.5
20200331054532 40 324 1.0 6.0 0.00 0.00 0.00 85 1015.6
20200331053503 40 270 1.0 8.0 0.00 0.00 0.00 85 1015.4
20200331052530 40 33 5.0 9.0 0.00 0.00 0.00 85 1015.2
20200331051506 40 340 5.0 11.0 0.00 0.00 0.00 86 1015.3
20200331050511 40 319 3.0 9.0 0.00 0.00 0.00 86 1015.4
20200331045529 40 356 3.0 6.0 0.00 0.00 0.00 86 1015.4
20200331044528 40 348 4.0 9.0 0.00 0.00 0.00 86 1015.5
20200331043501 40 328 3.0 9.0 0.00 0.00 0.00 87 1015.3
20200331042521 40 6 4.0 12.0 0.00 0.00 0.00 88 1015.1
20200331041509 40 23 3.0 8.0 0.00 0.00 0.00 88 1014.8
20200331040502 41 357 3.0 8.0 0.00 0.00 0.00 87 1015.1
20200331035524 41 24 1.0 9.0 0.00 0.00 0.00 86 1015.0
20200331034520 41 282 4.0 10.0 0.00 0.00 0.00 86 1015.0
20200331033511 41 328 5.0 12.0 0.00 0.00 0.00 86 1015.1
20200331032505 41 47 4.0 11.0 0.00 0.00 0.00 85 1015.1
20200331031508 41 331 5.0 11.0 0.00 0.00 0.00 85 1015.3
20200331030515 41 20 5.0 12.0 0.00 0.00 0.00 84 1015.2
20200331025544 41 63 3.0 12.0 0.00 0.00 0.00 84 1015.4
20200331024535 42 25 4.0 10.0 0.00 0.00 0.00 83 1015.3
20200331023509 42 309 3.0 13.0 0.00 0.00 0.00 83 1015.2
20200331022510 42 340 2.0 13.0 0.00 0.00 0.00 83 1015.1
20200331021504 42 33 9.0 17.0 0.00 0.00 0.00 82 1015.1
20200331020511 42 46 4.0 10.0 0.00 0.00 0.00 83 1015.1
20200331015540 42 46 4.0 10.0 0.00 0.00 0.00 83 1014.9
20200331014526 42 344 3.0 11.0 0.00 0.00 0.00 82 1014.9
20200331013514 42 49 3.0 11.0 0.00 0.00 0.00 82 1014.8
20200331012506 42 53 2.0 10.0 0.00 0.00 0.00 82 1014.9
20200331011535 42 35 4.0 10.0 0.00 0.00 0.00 82 1014.9
20200331010517 43 343 5.0 11.0 0.00 0.00 0.00 82 1014.8
20200331005505 43 20 6.0 8.0 0.00 0.04 0.00 82 1014.8
20200331004515 43 149 3.0 12.0 0.00 0.04 0.00 82 1014.7
20200331003504 43 16 2.0 8.0 0.00 0.04 0.00 82 1014.5
20200331002512 43 37 4.0 10.0 0.00 0.04 0.00 82 1014.4
20200331001520 43 44 3.0 12.0 0.00 0.04 0.00 82 1014.3
20200331000511 44 347 4.0 9.0 0.00 0.04 0.00 82 1014.1
20200330235519 44 23 6.0 12.0 0.00 0.06 0.00 82 1014.0
20200330234507 44 79 4.0 12.0 0.00 0.06 0.00 82 1013.9
20200330233535 44 330 2.0 7.0 0.00 0.06 0.00 83 1013.7
20200330232506 44 85 2.0 4.0 0.00 0.06 0.00 83 1013.7
20200330231514 44 4 1.0 11.0 0.00 0.06 0.00 82 1013.5
20200330230522 44 33 5.0 9.0 0.00 0.06 0.00 82 1013.4
20200330225515 44 349 1.0 9.0 0.00 0.06 0.00 83 1013.4
20200330224523 45 304 4.0 8.0 0.00 0.06 0.00 82 1013.4
20200330223509 45 340 2.0 12.0 0.00 0.06 0.00 82 1013.3
20200330222518 45 8 2.0 7.0 0.00 0.06 0.00 83 1013.2
20200330221527 45 6 1.0 7.0 0.00 0.06 0.00 84 1013.1
20200330220518 45 141 2.0 9.0 0.00 0.06 0.00 83 1012.9
20200330215526 45 50 6.0 13.0 0.00 0.06 0.00 82 1012.7
20200330214514 46 57 3.0 10.0 0.00 0.06 0.00 81 1012.4
20200330213502 46 64 3.0 11.0 0.00 0.06 0.00 82 1012.2
20200330212530 46 21 5.0 11.0 0.00 0.06 0.00 81 1012.2
20200330211540 46 14 4.0 11.0 0.00 0.06 0.00 81 1012.1
20200330210527 46 340 4.0 13.0 0.00 0.06 0.00 81 1012.4
20200330205510 46 316 6.0 11.0 0.00 0.06 0.00 81 1012.0
20200330204518 46 24 6.0 12.0 0.00 0.06 0.00 81 1012.3
20200330203510 46 335 3.0 11.0 0.00 0.06 0.00 82 1012.5
20200330202520 46 347 4.0 10.0 0.00 0.06 0.00 80 1012.6
20200330201507 47 17 5.0 9.0 0.00 0.06 0.00 80 1012.5
20200330200516 47 356 4.0 9.0 0.00 0.06 0.00 79 1012.5
20200330195529 48 15 2.0 7.0 0.00 0.06 0.00 79 1012.4
20200330194535 48 262 2.0 7.0 0.00 0.06 0.00 78 1012.0
20200330193503 48 14 1.0 4.0 0.00 0.06 0.00 78 1012.0
20200330192532 47 342 3.0 11.0 0.00 0.06 0.00 78 1011.9
20200330191503 48 18 2.0 7.0 0.00 0.06 0.00 79 1011.9
20200330190511 48 341 1.0 5.0 0.00 0.06 0.00 79 1011.9
20200330185521 47 313 2.0 7.0 0.00 0.06 0.00 79 1011.8
20200330184529 47 242 2.0 6.0 0.00 0.06 0.00 79 1011.8
20200330183535 48 338 1.0 5.0 0.00 0.06 0.00 79 1011.8
20200330182505 48 335 5.0 8.0 0.00 0.06 0.00 78 1011.8
20200330181513 48 357 3.0 10.0 0.00 0.06 0.00 80 1011.9
20200330180501 48 60 3.0 6.0 0.00 0.06 0.00 79 1011.8
20200330175510 47 327 2.0 8.0 0.00 0.07 0.00 79 1011.9
20200330174502 47 48 2.0 6.0 0.00 0.07 0.00 80 1012.2